Troy, AL

1:22 PM CDT on July 22, 2017 (GMT -0500)
Troy Municipal

Weather History for KTOI - March, 2012

Change the Weather History Date:

Friday, March 16, 2012

  Actual Average Record
Temperature  
Mean Temperature 69 °F 56 °F  
Max Temperature 84 °F 70 °F 84 °F (2012)
Min Temperature 53 °F 43 °F 25 °F (2017)
Degree Days  
Heating Degree Days 0 9  
Month to date heating degree days 73 170  
Since 1 July heating degree days 1683 2089  
Cooling Degree Days 4 0  
Month to date cooling degree days 35 0  
Year to date cooling degree days 43 5  
Growing Degree Days 19 (Base 50)    
Moisture  
Dew Point 56 °F    
Average Humidity 66    
Maximum Humidity 100    
Minimum Humidity 32    
Precipitation  
Precipitation 0.00 in 0.19 in 1.92 in (2014)
Month to date precipitation 0.75 2.79  
Year to date precipitation 10.09 11.92  
Snow  
Snow 0.00 in - - ()
Month to date snowfall 0.0  
Since 1 July snowfall 0.0  
Snow Depth 0.00 in    
Sea Level Pressure  
Sea Level Pressure 30.19 in    
Wind  
Wind Speed 2 mph (SW)    
Max Wind Speed 13 mph    
Max Gust Speed 20 mph    
Visibility 10 miles    
Events      
T = Trace of Precipitation, MM = Missing Value Source: NWS Daily Summary

Daily Weather History Graph

Daily Weather History Graph

Search for Another Location

Airport or City:

Trip Planner

Search our weather history database for the weather conditions in past years. The results will help you decide how hot, cold, wet, or windy it might be!

Date:

Astronomy

Mar. 16, 2012 Rise Set
Actual Time 6:52 AM CDT 6:53 PM CDT
Civil Twilight 6:27 AM CDT 7:17 PM CDT
Nautical Twilight 5:59 AM CDT 7:45 PM CDT
Astronomical Twilight 5:31 AM CDT 8:14 PM CDT
Moon 2:51 AM CDT (3/16) 1:30 PM CDT (3/16)
Length of Visible Light 12h 49m
Length of Day
12h 00m
Waning Crescent, 32% of the Moon is Illuminated
Mar 16
Waning Crescent
Mar 22
New
Mar 30
First Quarter
Apr 6
Full
Apr 13
Last Quarter

Hourly Weather History & Observations

Time (CDT) Temp. Heat Index Dew Point Humidity Pressure Visibility Wind Dir Wind Speed Gust Speed Precip Events Conditions
12:53 AM 59.0 °F - 55.9 °F 90% 30.21 in 10.0 mi Calm Calm - N/A   Clear
1:53 AM 59.0 °F - 55.9 °F 90% 30.21 in 10.0 mi Calm Calm - N/A   Clear
2:53 AM 59.0 °F - 55.9 °F 90% 30.20 in 10.0 mi Calm Calm - N/A   Mostly Cloudy
3:53 AM 55.0 °F - 55.0 °F 100% 30.19 in 9.0 mi Calm Calm - N/A   Clear
4:53 AM 55.9 °F - 55.0 °F 97% 30.18 in 9.0 mi Calm Calm - N/A   Clear
5:53 AM 55.0 °F - 53.1 °F 93% 30.19 in 10.0 mi Calm Calm - N/A   Clear
6:53 AM 54.0 °F - 53.1 °F 97% 30.21 in 10.0 mi Calm Calm - N/A   Clear
7:53 AM 57.9 °F - 55.0 °F 90% 30.23 in 10.0 mi Calm Calm - N/A   Clear
8:53 AM 66.0 °F - 60.1 °F 81% 30.25 in 10.0 mi Calm Calm - N/A   Clear
9:53 AM 73.9 °F - 59.0 °F 59% 30.25 in 10.0 mi NNW 9.2 mph - N/A   Clear
10:53 AM 77.0 °F - 60.1 °F 56% 30.25 in 10.0 mi Calm Calm - N/A   Clear
11:53 AM 80.1 °F 80.9 °F 60.1 °F 50% 30.24 in 10.0 mi Variable 3.5 mph - N/A   Scattered Clouds
12:53 PM 82.0 °F 81.6 °F 55.9 °F 41% 30.22 in 10.0 mi SW 10.4 mph - N/A   Partly Cloudy
1:53 PM 82.9 °F 82.1 °F 55.9 °F 39% 30.19 in 10.0 mi Variable 5.8 mph 18.4 mph N/A   Clear
2:53 PM 82.9 °F 81.9 °F 54.0 °F 37% 30.17 in 10.0 mi SW 3.5 mph - N/A   Scattered Clouds
3:53 PM 84.0 °F - 52.0 °F 33% 30.14 in 10.0 mi Variable 4.6 mph - N/A   Clear
4:53 PM 82.0 °F - 52.0 °F 35% 30.12 in 10.0 mi SW 9.2 mph - N/A   Partly Cloudy
5:53 PM 82.0 °F 81.2 °F 53.1 °F 37% 30.13 in 10.0 mi SW 8.1 mph - N/A   Clear
6:04 PM 80.6 °F 80.3 °F 53.6 °F 39% 30.14 in 10.0 mi SW 5.8 mph - N/A   Partly Cloudy
6:53 PM 77.0 °F - 54.0 °F 45% 30.13 in 10.0 mi Calm Calm - N/A   Clear
7:53 PM 70.0 °F - 55.0 °F 59% 30.15 in 10.0 mi Calm Calm - N/A   Clear
8:53 PM 66.0 °F - 57.0 °F 73% 30.17 in 10.0 mi Calm Calm - N/A   Clear
9:53 PM 63.0 °F - 57.0 °F 81% 30.18 in 10.0 mi Calm Calm - N/A   Clear
10:53 PM 61.0 °F - 57.0 °F 87% 30.19 in 10.0 mi Calm Calm - N/A   Clear
11:53 PM 60.1 °F - 55.9 °F 86% 30.20 in 10.0 mi Calm Calm - N/A   Clear